Location: Lafig�re
(44.4503°N, 4.0357°E)
Time: 14:15:43
(UTC+00:00)

Vanguard 2 Rocket - Pass Details

Date: 31 January 2021
Orbit: 554 x 3325 km, 32.9° (Epoch: 06 March)

Event Time Altitude Azimuth Distance (km) Brightness Sun altitude
Rises 08:32:37 0° 174° (S) 7,133 12.2 12.7°
Reaches altitude 10° 08:45:41 10° 140° (SE) 6,262 13.8 14.4°
Maximum altitude 08:47:51 10° 134° (SE) 6,210 14.4 14.7°
Drops below altitude 10° 08:50:00 10° 127° (SE) 6,189 13.8 15.0°
Sets 09:01:56 0° 94° (E) 6,690 12.1 16.5°
